Wind_Speed
32 30 30 29 28 27 27 26 25 25 26 26 27 27 26 26 25 25 24 25 25 26 26 27 28 29 31 31 32 32 33 33 33 33 34 35 36 37
33 31 30 28 27 27 26 25 25 25 25 26 26 26 26 26 25 24 24 25 25 26 27 28 28 28 29 30 30 31 31 31 31 32 32 32 33 34
34 32 30 28 27 27 26 25 25 25 24 24 24 24 25 25 25 24 24 25 25 25 25 25 26 28 29 29 29 29 30 31 31 32 34 34 34 35
34 32 30 29 28 27 26 25 25 24 24 24 24 24 25 25 25 24 24 23 24 24 25 25 26 26 27 28 28 28 28 30 31 32 34 35 36 36
35 33 31 29 28 27 27 25 24 24 23 23 23 24 24 24 25 24 24 23 23 23 23 23 24 24 24 25 26 26 27 28 29 30 31 33 34 35
37 34 32 30 28 27 26 24 23 23 22 21 21 22 23 23 23 23 24 24 23 22 21 21 22 22 22 23 23 24 24 25 25 27 29 31 33 35
39 36 33 31 29 27 27 25 23 22 22 21 21 22 22 22 22 21 21 21 21 21 20 20 20 20 20 20 20 20 21 21 21 23 24 25 26 29
39 36 34 32 29 28 27 25 23 22 21 21 21 21 21 21 21 21 21 21 22 22 22 21 19 19 19 18 18 17 17 17 17 18 19 20 20 21
38 37 35 32 30 28 27 26 24 23 22 21 21 21 21 20 21 21 20 20 20 20 20 18 17 17 16 15 15 14 14 15 14 15 15 16 18 19
41 39 36 33 31 29 28 27 26 24 23 21 20 21 21 21 22 21 20 19 18 17 17 15 14 13 12 11 11 10 10 10 11 11 13 14 15 16
43 40 37 34 32 30 28 27 25 24 22 22 21 20 21 20 19 19 18 16 15 15 14 14 13 11 10 10 9 9 9 9 9 10 12 13 14 16
44 42 39 35 33 30 29 26 25 23 22 21 22 21 21 20 19 18 16 14 14 14 14 12 11 10 9 8 8 7 7 8 8 9 11 12 14 15
43 42 38 35 33 30 29 27 24 23 22 21 21 20 20 18 18 16 15 14 14 13 12 11 10 9 8 7 7 6 6 7 8 9 11 12 14 16
41 39 36 34 31 30 28 26 24 22 22 20 20 19 18 17 17 16 15 14 13 12 12 11 10 9 8 7 6 6 6 7 8 9 11 12 14 16
38 36 34 32 30 28 27 25 24 23 21 19 19 18 18 17 16 15 14 14 14 13 12 11 10 9 8 7 6 6 6 7 9 10 11 13 15 17
35 33 32 30 28 27 25 23 22 22 20 19 18 18 18 17 15 15 15 14 13 13 12 11 10 9 8 7 7 7 8 9 11 12 14 15 17 18
34 31 29 28 27 25 24 23 22 21 20 19 18 18 18 17 17 16 15 14 13 12 12 11 10 9 9 8 9 10 11 13 14 15 17 18 19 21
34 32 30 28 26 25 25 24 23 21 20 19 19 18 17 17 17 16 14 13 13 12 12 11 10 10 10 11 12 13 15 16 17 19 20 21 22 24
34 32 30 28 27 26 25 25 23 22 21 20 19 18 17 17 16 15 14 14 13 13 12 12 11 12 12 14 15 17 18 20 21 22 23 24 25 26
34 31 29 28 27 26 25 24 23 22 21 20 19 18 17 16 15 14 14 13 12 12 12 13 13 14 15 17 19 20 21 23 24 25 26 27 28 29
33 32 30 28 27 26 25 24 23 22 21 20 18 17 16 15 14 14 13 13 12 13 13 15 16 17 19 20 21 23 25 26 27 28 28 29 30 30
33 31 30 28 27 26 24 24 23 22 20 19 17 16 15 14 14 13 13 13 13 14 15 17 18 20 22 23 25 26 27 28 29 29 30 30 31 32
32 31 30 28 27 26 25 23 22 20 19 18 16 15 14 13 13 13 13 14 15 16 18 19 21 22 24 26 27 28 29 29 29 30 30 31 32 33
Wind_Direction
288 292 297 300 301 299 294 288 281 274 268 263 261 260 259 260 262 260 257 256 256 256 256 255 254 253 252 253 253 254 254 253 253 252 253 253 253 254
283 288 292 296 299 298 293 289 284 277 270 265 262 260 258 259 261 261 258 257 255 256 257 256 255 253 253 253 255 254 253 250 248 249 250 252 253 253
278 283 287 292 295 296 293 288 284 279 272 266 262 259 258 258 258 259 258 256 256 257 256 256 255 255 255 256 256 255 254 250 248 248 249 251 253 252
273 278 282 287 291 292 292 288 284 280 272 265 260 258 258 257 257 258 256 255 256 256 255 255 256 257 257 257 257 258 257 255 252 250 250 252 254 252
269 273 277 282 287 288 289 286 282 279 274 265 258 256 256 256 256 255 254 255 255 255 254 253 254 256 257 258 259 259 257 256 255 254 253 254 254 252
265 268 272 277 282 284 285 283 279 277 273 266 259 256 256 255 254 253 253 252 251 255 256 254 255 258 259 258 258 258 257 259 258 256 255 255 256 255
259 263 267 272 277 279 281 280 276 273 270 265 260 256 255 252 251 251 251 251 253 256 256 256 256 257 259 258 258 258 258 258 257 257 257 258 258 258
255 257 262 267 272 275 276 276 274 270 266 263 258 253 251 251 252 253 252 255 255 256 255 254 254 253 254 255 255 256 258 257 258 259 260 260 263 266
252 253 257 262 267 270 270 270 270 266 262 261 256 251 248 251 252 253 249 252 254 252 250 246 245 247 250 250 250 252 253 254 254 257 260 263 266 269
248 250 254 258 262 264 265 266 266 264 260 255 254 251 250 250 245 248 249 250 250 243 240 236 236 238 236 238 239 240 246 251 256 263 270 274 277 279
243 246 249 253 257 259 261 261 262 258 253 253 250 250 246 245 246 249 246 240 235 232 230 226 223 224 225 226 228 236 246 254 262 270 277 282 285 286
239 242 245 248 251 255 256 257 256 251 250 251 244 245 246 246 242 240 233 228 225 221 218 214 212 211 214 220 227 236 248 260 271 282 289 293 295 296
234 237 240 244 247 250 251 250 249 247 246 244 241 240 236 233 231 224 216 211 209 208 204 201 201 203 207 215 224 237 255 272 286 295 300 302 303 302
226 229 233 237 241 243 242 241 242 241 239 238 235 232 225 220 215 208 202 200 200 198 195 195 197 200 203 210 223 240 262 278 292 300 304 307 309 309
218 222 225 229 233 235 235 235 235 233 230 229 224 219 211 206 203 200 196 193 192 191 192 192 194 197 203 214 230 247 265 280 291 299 304 308 310 312
211 215 219 223 225 225 224 224 223 220 217 214 209 207 204 201 199 192 185 185 188 189 191 195 199 203 211 225 242 257 272 284 292 298 303 306 309 311
202 207 211 214 214 213 213 212 208 205 203 198 195 196 194 189 184 180 181 185 189 193 197 202 208 218 229 242 257 269 279 286 293 298 301 304 306 308
196 200 203 205 206 206 203 201 197 194 189 186 186 186 184 181 180 182 187 191 196 200 205 212 222 235 246 257 268 278 284 289 293 296 298 300 302 305
192 195 197 197 198 196 193 189 185 182 181 180 181 182 181 182 185 189 194 199 204 210 218 228 239 250 261 270 277 282 288 291 293 295 296 297 299 303
188 189 189 189 187 185 184 181 179 178 178 179 180 182 183 186 191 196 201 207 215 224 234 245 254 262 269 276 281 285 289 292 294 294 295 296 298 300
184 185 185 183 182 180 179 177 176 176 176 178 181 183 186 191 197 203 211 219 229 240 249 258 265 272 277 281 284 287 290 292 293 293 294 295 297 300
181 180 178 176 174 173 173 174 174 175 177 180 183 186 191 197 205 213 223 233 242 251 258 265 272 277 281 284 287 290 292 293 294 293 294 295 297 299
173 173 171 170 169 170 171 173 175 177 180 184 188 192 198 207 216 225 235 245 255 262 268 272 277 281 284 287 289 291 292 292 293 293 294 295 296 298
Height
5766 5764 5761 5759 5756 5753 5752 5751 5751 5751 5752 5754 5756 5757 5759 5762 5764 5765 5768 5770 5772 5774 5776 5778 5780 5782 5785 5787 5789 5791 5794 5796 5798 5800 5802 5805 5808 5810
5758 5756 5754 5752 5749 5747 5745 5744 5743 5744 5745 5746 5748 5750 5752 5754 5756 5758 5761 5763 5765 5767 5769 5770 5772 5775 5777 5779 5781 5783 5785 5788 5790 5792 5794 5797 5799 5802
5749 5748 5746 5744 5742 5740 5739 5738 5737 5737 5737 5739 5741 5743 5745 5747 5749 5751 5753 5755 5757 5759 5761 5763 5765 5767 5769 5771 5773 5775 5777 5780 5782 5784 5787 5789 5791 5793
5740 5740 5738 5737 5735 5734 5732 5731 5730 5730 5730 5731 5733 5735 5737 5739 5741 5744 5746 5748 5750 5752 5754 5756 5758 5760 5762 5764 5766 5768 5770 5772 5774 5776 5779 5781 5783 5785
5731 5731 5730 5729 5728 5726 5725 5724 5724 5723 5724 5725 5726 5728 5730 5732 5734 5736 5739 5741 5743 5745 5747 5749 5751 5753 5755 5756 5758 5760 5762 5764 5766 5768 5770 5772 5774 5776
5720 5721 5721 5721 5720 5719 5718 5718 5718 5718 5718 5719 5720 5722 5724 5725 5727 5729 5732 5734 5736 5738 5740 5742 5744 5746 5748 5750 5751 5753 5755 5756 5758 5760 5762 5764 5766 5768
5709 5711 5712 5712 5711 5711 5711 5711 5711 5711 5712 5713 5715 5716 5718 5719 5721 5723 5726 5728 5730 5732 5734 5737 5739 5740 5742 5743 5745 5746 5748 5750 5751 5753 5755 5756 5758 5759
5697 5700 5702 5703 5703 5703 5703 5704 5705 5705 5706 5707 5709 5711 5712 5714 5716 5718 5721 5723 5725 5727 5729 5731 5733 5735 5737 5738 5740 5741 5743 5744 5745 5747 5748 5750 5751 5752
5686 5689 5692 5694 5695 5695 5696 5697 5698 5699 5700 5702 5703 5705 5706 5709 5711 5713 5715 5717 5719 5722 5724 5726 5728 5730 5731 5733 5734 5736 5738 5739 5741 5742 5743 5744 5745 5746
5673 5678 5681 5684 5686 5687 5688 5690 5691 5692 5694 5695 5697 5699 5701 5703 5705 5708 5710 5712 5714 5716 5719 5721 5723 5725 5727 5729 5730 5732 5734 5735 5736 5737 5738 5739 5740 5740
5660 5666 5670 5674 5676 5679 5680 5682 5684 5686 5687 5689 5691 5694 5696 5698 5700 5703 5705 5707 5710 5712 5715 5717 5719 5721 5723 5725 5727 5729 5730 5731 5732 5733 5734 5734 5734 5734
5646 5653 5659 5663 5667 5670 5672 5675 5677 5679 5682 5684 5686 5689 5691 5693 5696 5699 5701 5704 5706 5709 5711 5714 5716 5718 5720 5722 5724 5726 5727 5728 5728 5729 5729 5729 5729 5728
5633 5641 5648 5653 5657 5661 5664 5667 5670 5673 5676 5678 5681 5683 5686 5689 5691 5694 5697 5700 5703 5706 5709 5711 5713 5716 5718 5720 5721 5723 5724 5724 5724 5724 5724 5724 5723 5722
5621 5630 5637 5643 5648 5653 5657 5660 5663 5667 5670 5673 5676 5679 5682 5685 5687 5690 5693 5697 5700 5703 5706 5708 5711 5713 5716 5717 5719 5720 5720 5721 5721 5721 5720 5719 5718 5716
5611 5620 5628 5634 5640 5645 5649 5653 5658 5661 5665 5669 5672 5675 5678 5681 5684 5688 5691 5695 5698 5701 5704 5706 5709 5711 5713 5715 5716 5717 5717 5717 5717 5716 5715 5714 5712 5711
5603 5612 5619 5626 5633 5638 5643 5648 5652 5657 5661 5665 5669 5672 5675 5679 5682 5686 5690 5693 5696 5699 5702 5704 5706 5708 5710 5711 5713 5713 5713 5713 5713 5712 5710 5709 5707 5704
5597 5606 5613 5620 5627 5633 5638 5643 5648 5652 5657 5661 5665 5669 5673 5677 5680 5684 5688 5692 5695 5698 5700 5702 5704 5706 5707 5708 5709 5709 5709 5708 5707 5706 5705 5703 5701 5698
5591 5600 5608 5615 5622 5628 5634 5639 5644 5649 5654 5659 5664 5668 5671 5675 5679 5683 5687 5690 5693 5696 5698 5700 5702 5703 5704 5705 5705 5704 5704 5703 5702 5700 5699 5697 5694 5692
5587 5596 5604 5611 5618 5625 5631 5636 5641 5647 5652 5657 5662 5666 5670 5674 5678 5682 5685 5688 5691 5693 5696 5697 5699 5700 5700 5700 5700 5700 5699 5697 5696 5694 5692 5690 5687 5684
5585 5593 5601 5609 5616 5622 5629 5634 5640 5646 5651 5656 5661 5665 5669 5673 5677 5680 5683 5686 5689 5691 5693 5694 5695 5695 5696 5696 5695 5694 5692 5691 5689 5687 5685 5682 5679 5676
5584 5592 5600 5608 5614 5621 5628 5634 5639 5645 5650 5655 5660 5664 5668 5671 5675 5678 5681 5683 5686 5688 5689 5690 5690 5690 5690 5690 5689 5688 5686 5684 5682 5679 5677 5674 5671 5668
5584 5592 5600 5607 5614 5621 5627 5633 5639 5644 5650 5654 5658 5662 5666 5670 5673 5675 5678 5680 5682 5683 5684 5685 5685 5685 5684 5683 5682 5681 5679 5676 5674 5671 5668 5666 5663 5659
5585 5593 5601 5608 5615 5621 5627 5633 5639 5644 5649 5653 5657 5661 5664 5667 5670 5672 5675 5676 5678 5679 5679 5679 5679 5679 5678 5676 5675 5673 5671 5669 5666 5663 5660 5657 5654 5650